Weather History for KBFF - March, 2013

Change the Weather History Date:

Thursday, March 28, 2013

  Actual Average Record
Temperature  
Mean Temperature 49 °F 41 °F  
Max Temperature 68 °F 56 °F 82 °F (2015)
Min Temperature 30 °F 27 °F -9 °F (1899)
Degree Days  
Heating Degree Days 16 24  
Month to date heating degree days 762 761  
Since 1 July heating degree days 5283 5673  
Cooling Degree Days 0 0  
Month to date cooling degree days 0 0  
Year to date cooling degree days 0 0  
Moisture  
Dew Point 27 °F    
Average Humidity 57    
Maximum Humidity 92    
Minimum Humidity 22    
Precipitation  
Precipitation 0.00 in 0.04 in 0.80 in (1977)
Month to date precipitation 0.18 0.87  
Year to date precipitation 0.72 1.88  
Snow  
Snow 0.00 in 0.20 in 3.90 in (1980)
Month to date snowfall 1.9 7.0  
Since 1 July snowfall 22.9 35.4  
Snow Depth 0.00 in    
Sea Level Pressure  
Sea Level Pressure 30.04 in    
Wind  
Wind Speed 8 mph (North)    
Max Wind Speed 21 mph    
Max Gust Speed 32 mph    
Visibility 10 miles    
Events      
T = Trace of Precipitation, MM = Missing Value Source: NWS Daily Summary

Daily Weather History Graph

Daily Weather History Graph

Search for Another Location

Airport or City:

Trip Planner

Search our weather history database for the weather conditions in past years. The results will help you decide how hot, cold, wet, or windy it might be!

Date:

Astronomy

Mar. 28, 2013 Rise Set
Actual Time 6:43 AM MDT 7:15 PM MDT
Civil Twilight 6:15 AM MDT 7:43 PM MDT
Nautical Twilight 5:42 AM MDT 8:16 PM MDT
Astronomical Twilight 5:08 AM MDT 8:51 PM MDT
Moon 9:12 PM MDT (3/28) 7:11 AM MDT (3/28)
Length of Visible Light 13h 28m
Length of Day
12h 32m
Full, 98% of the Moon is Illuminated
Mar 28
Full
Apr 2
Last Quarter
Apr 10
New
Apr 18
First Quarter
Apr 25
Full

Hourly Weather History & Observations

Time (MDT) Temp. Windchill Dew Point Humidity Pressure Visibility Wind Dir Wind Speed Gust Speed Precip Events Conditions
12:53 AM 35.1 °F 27.9 °F 32.0 °F 89% 30.06 in 10.0 mi East 9.2 mph - N/A   Clear
1:53 AM 36.0 °F 28.5 °F 32.0 °F 86% 30.03 in 10.0 mi ESE 10.4 mph - N/A   Clear
2:53 AM 34.0 °F 28.8 °F 30.9 °F 89% 30.03 in 10.0 mi East 5.8 mph - N/A   Clear
3:53 AM 34.0 °F 29.8 °F 30.0 °F 85% 30.02 in 10.0 mi East 4.6 mph - N/A   Clear
4:53 AM 33.1 °F 24.9 °F 30.0 °F 89% 30.01 in 10.0 mi East 10.4 mph - N/A   Clear
5:53 AM 30.9 °F 25.2 °F 27.0 °F 85% 30.02 in 10.0 mi East 5.8 mph - N/A   Clear
6:53 AM 30.9 °F - 28.0 °F 89% 30.04 in 10.0 mi Calm Calm - N/A   Clear
7:53 AM 34.0 °F 28.8 °F 30.0 °F 85% 30.06 in 10.0 mi NNW 5.8 mph - N/A   Clear
8:53 AM 41.0 °F 35.2 °F 34.0 °F 76% 30.07 in 10.0 mi WNW 9.2 mph - N/A   Clear
9:53 AM 48.0 °F - 34.0 °F 58% 30.06 in 10.0 mi WNW 10.4 mph - N/A   Clear
10:53 AM 54.0 °F - 30.9 °F 41% 30.06 in 10.0 mi WNW 11.5 mph - N/A   Clear
11:53 AM 62.1 °F - 30.0 °F 30% 30.03 in 10.0 mi WNW 9.2 mph - N/A   Clear
12:53 PM 64.0 °F - 26.1 °F 24% 30.02 in 10.0 mi WNW 10.4 mph - N/A   Clear
1:53 PM 66.0 °F - 27.0 °F 23% 30.00 in 10.0 mi West 11.5 mph 17.3 mph N/A   Clear
2:53 PM 66.9 °F - 28.0 °F 23% 29.99 in 10.0 mi WNW 15.0 mph 32.2 mph N/A   Clear
3:53 PM 66.9 °F - 28.0 °F 23% 29.99 in 10.0 mi WSW 9.2 mph - N/A   Clear
4:53 PM 66.9 °F - 28.0 °F 23% 29.99 in 10.0 mi WNW 11.5 mph 16.1 mph N/A   Clear
5:53 PM 66.0 °F - 26.1 °F 22% 30.00 in 10.0 mi NNW 13.8 mph - N/A   Clear
6:53 PM 60.1 °F - 23.0 °F 24% 30.03 in 10.0 mi NE 8.1 mph - N/A   Clear
7:53 PM 51.1 °F - 19.9 °F 29% 30.06 in 8.0 mi NE 9.2 mph - N/A   Clear
8:53 PM 48.0 °F - 21.9 °F 36% 30.08 in 10.0 mi ENE 8.1 mph - N/A   Clear
9:53 PM 43.0 °F - 19.0 °F 38% 30.09 in 10.0 mi Calm Calm - N/A   Clear
10:53 PM 39.0 °F 35.7 °F 19.0 °F 45% 30.08 in 10.0 mi East 4.6 mph - N/A   Clear
11:53 PM 37.9 °F 32.7 °F 21.0 °F 51% 30.07 in 10.0 mi East 6.9 mph - N/A   Mostly Cloudy